Flag for Australia Weather past 2 weeks in Bunbury, Western Australia, Australia

Now
86 °F

Pleasantly warm.


Feels Like: 84 °F
Forecast: 65 / 81 °F
Wind: 10 mph from Southeast

Location: Bunbury

Current Time: Mar 4, 2015 at 8:10:15 PM

Latest Report: Mar 4, 2015 at 6:00 PM


Visibility: N/A

Pressure: 30.12 "Hg

Humidity: 30%

Dew point: 51 °F

Location of BunburyLocation

Historic Weather in Bunbury — Graph

°F

Bunbury temperature yesterday

Maximum temperature yesterday: 83 °F (at 3:00 PM)
Minimum temperature yesterday: 59 °F (at 3:00 AM)
Average temperature yesterday: 71 °F

Past Weeks' High & Low Weather Summary

 TemperatureHumidityPressure
High96 °F (Feb 25, 3:00 PM)98% (Feb 21, 5:00 AM)30.24 "Hg (Feb 21, 5:00 AM)
Low54 °F (Feb 21, 6:00 AM)21% (Feb 23, 3:00 PM)29.65 "Hg (Feb 26, 6:00 PM)
Average72 °F60%29.94 "Hg
* Reported Feb 17 6:00 PM — Mar 4 6:00 PM, Bunbury, Weather by CustomWeather, © 2015

Note: Actual official high and low records may vary slightly from our data, if they occured in-between our weather recording intervals... More about our weather records

Advertising

Bunbury weather history for previous 24 hours

 ConditionsComfort  
Time TempWeatherWind HumidityBarometerVisibility
6:00 PM
Wed, Mar 4
86 °FPleasantly warm.10 mph30%30.12 "HgN/A
5:00 PM88 °FHot.12 mph30%30.11 "HgN/A
3:00 PM88 °FHot.7 mph35%30.12 "HgN/A
2:00 PM87 °FPleasantly warm.8 mph32%30.14 "HgN/A
12:00 PM84 °FPleasantly warm.9 mph37%30.19 "HgN/A
11:00 AM80 °FWarm.8 mph42%30.22 "HgN/A
9:00 AM71 °FMild.9 mph53%30.23 "HgN/A
8:00 AM64 °FMild.9 mph67%30.24 "HgN/A
6:00 AM58 °FCool.5 mph84%30.19 "HgN/A
5:00 AM58 °FCool.6 mph82%30.18 "HgN/A
3:00 AM62 °FCool.7 mph74%30.16 "HgN/A
2:00 AM64 °FMild.9 mph68%30.16 "HgN/A
12:00 AM68 °FMild.13 mph59%30.17 "HgN/A
11:00 PM
Tue, Mar 3
69 °FMild.9 mph56%30.17 "HgN/A
9:00 PM70 °FMild.12 mph57%30.15 "HgN/A
8:00 PM71 °FMild.12 mph55%30.13 "HgN/A
Weather by CustomWeather, © 2015

See weather overviewHow to use our weather pages